Location: Unspecified
(49.2170°N, 0.0000°E)
Time: 17:06:02
(UTC+00:00)

Vanguard 1 - Pass Details

Date: 22 June 2021
Orbit: 651 x 3832 km, 34.2° (Epoch: 23 July)

Event Time Altitude Azimuth Distance (km) Brightness Sun altitude
Rises 00:51:45 0° 269° (W) 7,764 14.5 -16.5°
Reaches altitude 10° 00:58:00 10° 263° (W) 6,439 14.0 -16.3°
Maximum altitude 01:14:16 37° 207° (SSW) 3,404 12.3 -15.6°
Drops below altitude 10° 01:24:17 10° 144° (SE) 3,991 12.8 -15.1°
Sets 01:27:09 0° 136° (SE) 4,626 13.3 -14.9°
